Location: Lake Lucerne
(45.5315°N, 88.8489°W)
Time: 22:41:18
(UTC-06:00)

OTV 5 (USA 277) - Visible Passes

Search period start: 18 November 2018 00:00
Search period end: 28 November 2018 00:00
Orbit: 339 x 348 km, 54.5° (Epoch: 14 November)

Date Brightness Start Highest point End Pass type
(mag) Time Alt. Az. Time Alt. Az. Time Alt. Az.
23 Nov ? 06:21:39 10° S 06:23:36 17° SE 06:25:32 10° E visible
25 Nov ? 05:33:54 10° S 05:35:46 16° SE 05:37:38 10° E visible
26 Nov ? 05:56:15 10° SW 05:59:02 47° SE 06:01:49 10° ENE visible
27 Nov ? 04:47:26 15° SE 04:47:54 15° SE 04:49:40 10° E visible
27 Nov ? 06:19:40 10° WSW 06:22:29 56° NNW 06:25:20 10° NE visible
